Location: Kunchanapalle
(16.4623°N, 80.6176°E)
Time: 17:37:22
(UTC+00:00)

deb Chang Zheng 4 - Pass Details

Date: 13 August 2020
Orbit: 604 x 624 km, 98.6° (Epoch: 18 September)

Event Time Altitude Azimuth Distance (km) Brightness Sun altitude
Rises 22:44:52 0° 8° (N) 2,900 7.4 -22.7°
Reaches altitude 10° 22:47:04 10° 5° (N) 1,993 6.5 -22.2°
Maximum altitude 22:51:22 67° 283° (WNW) 675 3.5 -21.2°
Enters shadow 22:52:05 56° 232° (SW) 741 3.5 -21.1°
